owner,sensor,date,latitude,longitude,vertical_datum,wind_speed,wind_to_direction,wind_speed_of_gust,qcFlag 
TABS,ioos:station:wmo:42043:1,2019-06-01T04:00:00Z,28.9818,-94.9186,4.0,4.11,117.3,5.63,'11111222,11111222,11111222' 
TABS,ioos:station:wmo:42043:1,2019-06-01T05:00:00Z,28.9818,-94.9186,4.0,3.9,132.2,4.72,'11111222,11111222,11111222' 
TABS,ioos:station:wmo:42043:1,2019-06-01T06:00:00Z,28.9818,-94.9186,4.0,2.92,136.1,4.23,'11111222,11111222,11111222' 
TABS,ioos:station:wmo:42043:1,2019-06-01T07:00:00Z,28.9818,-94.9186,4.0,1.78,137.3,2.56,'11111222,11111222,11111222' 
TABS,ioos:station:wmo:42043:1,2019-06-01T08:00:00Z,28.9818,-94.9186,4.0,1.79,144.9,2.68,'11111222,11111222,11111222' 
TABS,ioos:station:wmo:42043:1,2019-06-01T09:00:00Z,28.9818,-94.9186,4.0,1.39,136.4,2.46,'11111222,11111222,11111222' 
TABS,ioos:station:wmo:42043:1,2019-06-01T10:00:00Z,28.9818,-94.9186,4.0,1.6,142.1,2.3,'11111222,11111222,11111222' 
TABS,ioos:station:wmo:42043:1,2019-06-01T11:00:00Z,28.9818,-94.9186,4.0,0.82,187.8,1.42,'11111222,11111222,11111222' 
TABS,ioos:station:wmo:42043:1,2019-06-01T12:00:00Z,28.9818,-94.9186,4.0,0.26,162.0,0.69,'11111222,11111222,11111222' 
TABS,ioos:station:wmo:42043:1,2019-06-01T12:30:00Z,28.9818,-94.9186,4.0,1.04,136.6,1.45,'11111222,11111222,11111222' 
TABS,ioos:station:wmo:42043:1,2019-06-01T14:00:00Z,28.9818,-94.9186,4.0,0.79,148.1,1.62,'11111222,11111222,11111222' 
TABS,ioos:station:wmo:42043:1,2019-06-01T15:00:00Z,28.9818,-94.9186,4.0,0.8,69.5,1.68,'11111222,11111222,11111222' 
TABS,ioos:station:wmo:42043:1,2019-06-01T16:00:00Z,28.9818,-94.9186,4.0,1.11,56.6,1.57,'11111222,11111222,11111222' 
TABS,ioos:station:wmo:42043:1,2019-06-01T17:00:00Z,28.9818,-94.9186,4.0,1.72,84.6,2.29,'11111222,11111222,11111222' 
TABS,ioos:station:wmo:42043:1,2019-06-01T18:00:00Z,28.9818,-94.9186,4.0,1.69,107.9,2.57,'11111222,11111222,11111222' 
TABS,ioos:station:wmo:42043:1,2019-06-01T19:00:00Z,28.9818,-94.9186,4.0,1.71,97.3,2.52,'11111222,11111222,11111222' 
TABS,ioos:station:wmo:42043:1,2019-06-01T20:00:00Z,28.9818,-94.9186,4.0,2.44,122.0,3.55,'11111222,11111222,11111222' 
TABS,ioos:station:wmo:42043:1,2019-06-01T21:00:00Z,28.9818,-94.9186,4.0,2.75,119.2,3.93,'11111222,11111222,11111222' 
TABS,ioos:station:wmo:42043:1,2019-06-01T22:00:00Z,28.9818,-94.9186,4.0,3.15,120.3,4.6,'11111222,11111222,11111222' 
TABS,ioos:station:wmo:42043:1,2019-06-01T23:00:00Z,28.9818,-94.9186,4.0,3.2,124.3,4.12,'11111222,11111222,11111222' 
TABS,ioos:station:wmo:42043:1,2019-06-01T23:30:00Z,28.9818,-94.9186,4.0,2.67,108.9,4.2,'11111222,11111222,11111222' 
TABS,ioos:station:wmo:42043:1,2019-06-02T04:00:00Z,28.9818,-94.9186,4.0,4.81,155.7,5.66,'11111222,11111222,11111222' 
TABS,ioos:station:wmo:42043:1,2019-06-02T05:00:00Z,28.9818,-94.9186,4.0,5.11,158.4,5.97,'11111222,11111222,11111222' 
TABS,ioos:station:wmo:42043:1,2019-06-02T06:00:00Z,28.9818,-94.9186,4.0,4.85,174.7,5.77,'11111222,11111222,11111222' 
TABS,ioos:station:wmo:42043:1,2019-06-02T07:00:00Z,28.9818,-94.9186,4.0,4.58,180.8,5.54,'11111222,11111222,11111222' 
TABS,ioos:station:wmo:42043:1,2019-06-02T08:00:00Z,28.9818,-94.9186,4.0,4.55,185.6,5.49,'11111222,11111222,11111222' 
TABS,ioos:station:wmo:42043:1,2019-06-02T09:00:00Z,28.9818,-94.9186,4.0,3.53,179.0,4.53,'11111222,11111222,11111222' 
TABS,ioos:station:wmo:42043:1,2019-06-02T10:00:00Z,28.9818,-94.9186,4.0,3.26,192.9,4.41,'11111222,11111222,11111222' 
TABS,ioos:station:wmo:42043:1,2019-06-02T11:00:00Z,28.9818,-94.9186,4.0,2.69,196.3,3.79,'11111222,11111222,11111222' 
TABS,ioos:station:wmo:42043:1,2019-06-02T12:00:00Z,28.9818,-94.9186,4.0,0.24,221.3,0.61,'11111222,11111222,11111222' 
TABS,ioos:station:wmo:42043:1,2019-06-02T13:00:00Z,28.9818,-94.9186,4.0,0.92,80.1,1.65,'11111222,11111222,11111222' 
TABS,ioos:station:wmo:42043:1,2019-06-02T14:00:00Z,28.9818,-94.9186,4.0,0.86,110.8,1.54,'11111222,11111222,11111222' 
TABS,ioos:station:wmo:42043:1,2019-06-02T15:00:00Z,28.9818,-94.9186,4.0,1.18,114.5,1.89,'11111222,11111222,11111222' 
TABS,ioos:station:wmo:42043:1,2019-06-02T16:00:00Z,28.9818,-94.9186,4.0,1.59,153.9,2.53,'11111222,11111222,11111222' 
TABS,ioos:station:wmo:42043:1,2019-06-02T17:00:00Z,28.9818,-94.9186,4.0,1.96,170.6,3.0,'11111222,11111222,11111222' 
TABS,ioos:station:wmo:42043:1,2019-06-02T18:00:00Z,28.9818,-94.9186,4.0,0.58,140.8,1.61,'11111222,11111222,11111222' 
TABS,ioos:station:wmo:42043:1,2019-06-02T19:00:00Z,28.9818,-94.9186,4.0,2.55,143.9,3.51,'11111222,11111222,11111222' 
TABS,ioos:station:wmo:42043:1,2019-06-02T20:00:00Z,28.9818,-94.9186,4.0,2.44,149.3,3.63,'11111222,11111222,11111222' 
TABS,ioos:station:wmo:42043:1,2019-06-02T21:00:00Z,28.9818,-94.9186,4.0,3.5,153.2,4.75,'11111222,11111222,11111222' 
TABS,ioos:station:wmo:42043:1,2019-06-02T22:00:00Z,28.9818,-94.9186,4.0,3.1,151.6,4.28,'11111222,11111222,11111222' 
TABS,ioos:station:wmo:42043:1,2019-06-02T23:00:00Z,28.9818,-94.9186,4.0,3.37,144.7,4.45,'11111222,11111222,11111222' 
TABS,ioos:station:wmo:42043:1,2019-06-02T23:30:00Z,28.9818,-94.9186,4.0,3.27,137.6,4.44,'11111222,11111222,11111222' 
TABS,ioos:station:wmo:42043:1,2019-06-03T04:00:00Z,28.9818,-94.9186,4.0,6.24,152.8,7.29,'11111222,11111222,11111222' 
TABS,ioos:station:wmo:42043:1,2019-06-03T05:00:00Z,28.9818,-94.9186,4.0,6.47,171.3,8.01,'11111222,11111222,11111222' 
TABS,ioos:station:wmo:42043:1,2019-06-03T06:00:00Z,28.9818,-94.9186,4.0,5.88,190.5,7.38,'11111222,11111222,11111222' 
TABS,ioos:station:wmo:42043:1,2019-06-03T07:00:00Z,28.9818,-94.9186,4.0,3.83,191.4,4.96,'11111222,11111222,11111222' 
TABS,ioos:station:wmo:42043:1,2019-06-03T08:00:00Z,28.9818,-94.9186,4.0,2.8,190.9,3.76,'11111222,11111222,11111222' 
TABS,ioos:station:wmo:42043:1,2019-06-03T09:00:00Z,28.9818,-94.9186,4.0,1.8,204.3,3.05,'11111222,11111222,11111222' 
TABS,ioos:station:wmo:42043:1,2019-06-03T10:00:00Z,28.9818,-94.9186,4.0,1.8,182.8,2.91,'11111222,11111222,11111222' 
TABS,ioos:station:wmo:42043:1,2019-06-03T11:00:00Z,28.9818,-94.9186,4.0,1.51,224.3,2.26,'11111222,11111222,11111222' 
TABS,ioos:station:wmo:42043:1,2019-06-03T12:00:00Z,28.9818,-94.9186,4.0,0.33,125.8,1.19,'11111222,11111222,11111222' 
TABS,ioos:station:wmo:42043:1,2019-06-03T13:00:00Z,28.9818,-94.9186,4.0,1.01,112.0,1.6,'11111222,11111222,11111222' 
TABS,ioos:station:wmo:42043:1,2019-06-03T14:00:00Z,28.9818,-94.9186,4.0,1.81,85.2,2.67,'11111222,11111222,11111222' 
TABS,ioos:station:wmo:42043:1,2019-06-03T15:00:00Z,28.9818,-94.9186,4.0,2.2,89.7,3.23,'11111222,11111222,11111222' 
TABS,ioos:station:wmo:42043:1,2019-06-03T16:00:00Z,28.9818,-94.9186,4.0,3.39,106.3,4.65,'11111222,11111222,11111222' 
TABS,ioos:station:wmo:42043:1,2019-06-03T17:00:00Z,28.9818,-94.9186,4.0,3.06,111.3,4.11,'11111222,11111222,11111222' 
TABS,ioos:station:wmo:42043:1,2019-06-03T18:00:00Z,28.9818,-94.9186,4.0,3.04,96.2,4.66,'11111222,11111222,11111222' 
TABS,ioos:station:wmo:42043:1,2019-06-03T19:00:00Z,28.9818,-94.9186,4.0,3.17,111.4,4.43,'11111222,11111222,11111222' 
TABS,ioos:station:wmo:42043:1,2019-06-03T20:00:00Z,28.9818,-94.9186,4.0,2.61,126.9,3.38,'11111222,11111222,11111222' 
TABS,ioos:station:wmo:42043:1,2019-06-03T21:00:00Z,28.9818,-94.9186,4.0,3.09,103.9,4.25,'11111222,11111222,11111222' 
TABS,ioos:station:wmo:42043:1,2019-06-03T22:00:00Z,28.9818,-94.9186,4.0,4.25,120.3,5.71,'11111222,11111222,11111222' 
TABS,ioos:station:wmo:42043:1,2019-06-03T23:00:00Z,28.9818,-94.9186,4.0,4.43,139.8,5.46,'11111222,11111222,11111222' 
TABS,ioos:station:wmo:42043:1,2019-06-03T23:30:00Z,28.9818,-94.9186,4.0,4.8,140.1,6.35,'11111222,11111222,11111222' 
TABS,ioos:station:wmo:42043:1,2019-06-04T04:00:00Z,28.9818,-94.9186,4.0,5.36,141.1,6.45,'11111222,11111222,11111222' 
TABS,ioos:station:wmo:42043:1,2019-06-04T05:00:00Z,28.9818,-94.9186,4.0,5.86,147.8,6.8,'11111222,11111222,11111222' 
TABS,ioos:station:wmo:42043:1,2019-06-04T06:00:00Z,28.9818,-94.9186,4.0,5.37,150.6,6.69,'11111222,11111222,11111222' 
TABS,ioos:station:wmo:42043:1,2019-06-04T07:00:00Z,28.9818,-94.9186,4.0,4.66,149.4,5.61,'11111222,11111222,11111222' 
TABS,ioos:station:wmo:42043:1,2019-06-04T08:00:00Z,28.9818,-94.9186,4.0,4.6,138.7,5.58,'11111222,11111222,11111222' 
TABS,ioos:station:wmo:42043:1,2019-06-04T09:00:00Z,28.9818,-94.9186,4.0,4.13,136.4,5.19,'11111222,11111222,11111222' 
TABS,ioos:station:wmo:42043:1,2019-06-04T10:00:00Z,28.9818,-94.9186,4.0,4.45,142.6,5.53,'11111222,11111222,11111222' 
TABS,ioos:station:wmo:42043:1,2019-06-04T11:00:00Z,28.9818,-94.9186,4.0,4.24,130.0,5.09,'11111222,11111222,11111222' 
TABS,ioos:station:wmo:42043:1,2019-06-04T12:00:00Z,28.9818,-94.9186,4.0,4.28,125.2,5.35,'11111222,11111222,11111222' 
TABS,ioos:station:wmo:42043:1,2019-06-04T13:00:00Z,28.9818,-94.9186,4.0,3.82,131.7,4.96,'11111222,11111222,11111222' 
TABS,ioos:station:wmo:42043:1,2019-06-04T14:00:00Z,28.9818,-94.9186,4.0,3.99,122.5,4.95,'11111222,11111222,11111222' 
TABS,ioos:station:wmo:42043:1,2019-06-04T15:00:00Z,28.9818,-94.9186,4.0,4.67,123.6,6.29,'11111222,11111222,11111222' 
TABS,ioos:station:wmo:42043:1,2019-06-04T16:00:00Z,28.9818,-94.9186,4.0,5.21,119.5,6.11,'11111222,11111222,11111222' 
TABS,ioos:station:wmo:42043:1,2019-06-04T17:00:00Z,28.9818,-94.9186,4.0,5.81,109.7,6.93,'11111222,11111222,11111222' 
TABS,ioos:station:wmo:42043:1,2019-06-04T18:00:00Z,28.9818,-94.9186,4.0,5.29,111.5,6.48,'11111222,11111222,11111222' 
TABS,ioos:station:wmo:42043:1,2019-06-04T19:00:00Z,28.9818,-94.9186,4.0,7.18,115.0,8.65,'11111222,11111222,11111222' 
TABS,ioos:station:wmo:42043:1,2019-06-04T20:00:00Z,28.9818,-94.9186,4.0,5.25,174.4,6.78,'11111222,11111222,11111222' 
TABS,ioos:station:wmo:42043:1,2019-06-04T21:00:00Z,28.9818,-94.9186,4.0,3.54,108.8,4.49,'11111222,11111222,11111222' 
TABS,ioos:station:wmo:42043:1,2019-06-04T22:00:00Z,28.9818,-94.9186,4.0,7.09,120.5,8.67,'11111222,11111222,11111222' 
TABS,ioos:station:wmo:42043:1,2019-06-04T23:00:00Z,28.9818,-94.9186,4.0,5.74,229.9,6.82,'11111222,11111222,11111222' 
TABS,ioos:station:wmo:42043:1,2019-06-04T23:30:00Z,28.9818,-94.9186,4.0,2.76,184.8,3.89,'11111222,11111222,11111222' 
TABS,ioos:station:wmo:42043:1,2019-06-05T04:00:00Z,28.9818,-94.9186,4.0,7.36,115.8,8.77,'11111222,11111222,11111222' 
TABS,ioos:station:wmo:42043:1,2019-06-05T05:00:00Z,28.9818,-94.9186,4.0,7.76,107.8,9.42,'11111222,11111222,11111222' 
TABS,ioos:station:wmo:42043:1,2019-06-05T06:00:00Z,28.9818,-94.9186,4.0,7.99,112.4,9.53,'11111222,11111222,11111222' 
TABS,ioos:station:wmo:42043:1,2019-06-05T07:00:00Z,28.9818,-94.9186,4.0,8.46,115.0,9.69,'11111222,11111222,11111222' 
TABS,ioos:station:wmo:42043:1,2019-06-05T08:00:00Z,28.9818,-94.9186,4.0,8.78,129.1,10.17,'11111222,11111222,11111222' 
TABS,ioos:station:wmo:42043:1,2019-06-05T09:00:00Z,28.9818,-94.9186,4.0,9.35,142.7,11.55,'11111222,11111222,11111222' 
TABS,ioos:station:wmo:42043:1,2019-06-05T10:00:00Z,28.9818,-94.9186,4.0,10.66,160.1,12.88,'11111222,11111222,11111222' 
TABS,ioos:station:wmo:42043:1,2019-06-05T11:00:00Z,28.9818,-94.9186,4.0,9.21,149.0,10.68,'11111222,11111222,11111222' 
TABS,ioos:station:wmo:42043:1,2019-06-05T12:00:00Z,28.9818,-94.9186,4.0,10.41,147.4,12.65,'11111222,11111222,11111222' 
TABS,ioos:station:wmo:42043:1,2019-06-05T13:00:00Z,28.9818,-94.9186,4.0,9.24,142.1,11.29,'11111222,11111222,11111222' 
TABS,ioos:station:wmo:42043:1,2019-06-05T14:00:00Z,28.9818,-94.9186,4.0,8.05,142.4,9.45,'11111222,11111222,11111222' 
TABS,ioos:station:wmo:42043:1,2019-06-05T15:00:00Z,28.9818,-94.9186,4.0,8.48,147.7,10.45,'11111222,11111222,11111222' 
TABS,ioos:station:wmo:42043:1,2019-06-05T16:00:00Z,28.9818,-94.9186,4.0,6.95,138.5,8.74,'11111222,11111222,11111222' 
TABS,ioos:station:wmo:42043:1,2019-06-05T17:00:00Z,28.9818,-94.9186,4.0,10.25,128.6,13.19,'11111222,11111222,11111222' 
TABS,ioos:station:wmo:42043:1,2019-06-05T18:00:00Z,28.9818,-94.9186,4.0,11.81,122.9,16.13,'11111222,11111222,11111222' 
TABS,ioos:station:wmo:42043:1,2019-06-05T19:00:00Z,28.9818,-94.9186,4.0,10.89,119.7,13.63,'11111222,11111222,11111222' 
TABS,ioos:station:wmo:42043:1,2019-06-05T20:00:00Z,28.9818,-94.9186,4.0,11.95,147.5,15.23,'11111222,11111222,11111222' 
TABS,ioos:station:wmo:42043:1,2019-06-05T21:00:00Z,28.9818,-94.9186,4.0,12.5,193.8,14.97,'11111222,11111222,11111222' 
TABS,ioos:station:wmo:42043:1,2019-06-05T22:00:00Z,28.9818,-94.9186,4.0,10.55,193.9,13.41,'11111222,11111222,11111222' 
TABS,ioos:station:wmo:42043:1,2019-06-05T23:00:00Z,28.9818,-94.9186,4.0,9.92,205.7,11.78,'11111222,11111222,11111222' 
TABS,ioos:station:wmo:42043:1,2019-06-05T23:30:00Z,28.9818,-94.9186,4.0,9.77,212.6,11.67,'11111222,11111222,11111222' 
TABS,ioos:station:wmo:42043:1,2019-06-06T04:00:00Z,28.9818,-94.9186,4.0,4.94,276.9,8.04,'11111222,11111222,11111222' 
TABS,ioos:station:wmo:42043:1,2019-06-06T05:00:00Z,28.9818,-94.9186,4.0,6.23,300.6,7.71,'11111222,11111222,11111222' 
TABS,ioos:station:wmo:42043:1,2019-06-06T06:00:00Z,28.9818,-94.9186,4.0,2.52,294.5,3.93,'11111222,11111222,11111222' 
TABS,ioos:station:wmo:42043:1,2019-06-06T07:00:00Z,28.9818,-94.9186,4.0,2.87,274.4,3.98,'11111222,11111222,11111222' 
TABS,ioos:station:wmo:42043:1,2019-06-06T08:00:00Z,28.9818,-94.9186,4.0,3.28,261.9,4.26,'11111222,11111222,11111222' 
TABS,ioos:station:wmo:42043:1,2019-06-06T08:30:00Z,28.9818,-94.9186,4.0,4.5,260.1,5.58,'11111222,11111222,11111222' 
TABS,ioos:station:wmo:42043:1,2019-06-06T10:00:00Z,28.9818,-94.9186,4.0,4.88,280.0,6.46,'11111222,11111222,11111222' 
TABS,ioos:station:wmo:42043:1,2019-06-06T11:00:00Z,28.9818,-94.9186,4.0,6.04,313.6,7.84,'11111222,11111222,11111222' 
TABS,ioos:station:wmo:42043:1,2019-06-06T12:00:00Z,28.9818,-94.9186,4.0,6.37,318.6,7.98,'11111222,11111222,11111222' 
TABS,ioos:station:wmo:42043:1,2019-06-06T13:00:00Z,28.9818,-94.9186,4.0,6.49,315.5,7.95,'11111222,11111222,11111222' 
TABS,ioos:station:wmo:42043:1,2019-06-06T14:00:00Z,28.9818,-94.9186,4.0,1.99,318.9,3.13,'11111222,11111222,11111222' 
TABS,ioos:station:wmo:42043:1,2019-06-06T15:00:00Z,28.9818,-94.9186,4.0,4.73,174.8,5.92,'11111222,11111222,11111222' 
TABS,ioos:station:wmo:42043:1,2019-06-06T16:00:00Z,28.9818,-94.9186,4.0,4.94,183.5,6.01,'11111222,11111222,11111222' 
TABS,ioos:station:wmo:42043:1,2019-06-06T17:00:00Z,28.9818,-94.9186,4.0,2.63,248.8,3.46,'11111222,11111222,11111222' 
TABS,ioos:station:wmo:42043:1,2019-06-06T18:00:00Z,28.9818,-94.9186,4.0,2.14,223.5,3.02,'11111222,11111222,11111222' 
TABS,ioos:station:wmo:42043:1,2019-06-06T19:00:00Z,28.9818,-94.9186,4.0,2.21,175.5,3.06,'11111222,11111222,11111222' 
TABS,ioos:station:wmo:42043:1,2019-06-06T20:00:00Z,28.9818,-94.9186,4.0,2.87,163.6,3.93,'11111222,11111222,11111222' 
TABS,ioos:station:wmo:42043:1,2019-06-06T21:00:00Z,28.9818,-94.9186,4.0,5.9,207.7,6.95,'11111222,11111222,11111222' 
TABS,ioos:station:wmo:42043:1,2019-06-06T22:00:00Z,28.9818,-94.9186,4.0,6.01,200.9,7.13,'11111222,11111222,11111222' 
TABS,ioos:station:wmo:42043:1,2019-06-06T23:00:00Z,28.9818,-94.9186,4.0,6.18,199.3,7.32,'11111222,11111222,11111222' 
TABS,ioos:station:wmo:42043:1,2019-06-06T23:30:00Z,28.9818,-94.9186,4.0,5.98,196.4,6.97,'11111222,11111222,11111222' 
TABS,ioos:station:wmo:42043:1,2019-06-07T04:00:00Z,28.9818,-94.9186,4.0,6.77,160.3,8.8,'11111222,11111222,11111222' 
TABS,ioos:station:wmo:42043:1,2019-06-07T06:00:00Z,28.9818,-94.9186,4.0,5.81,188.5,6.82,'11111222,11111222,11111222' 
TABS,ioos:station:wmo:42043:1,2019-06-07T07:00:00Z,28.9818,-94.9186,4.0,4.97,213.9,6.15,'11111222,11111222,11111222' 
TABS,ioos:station:wmo:42043:1,2019-06-07T08:00:00Z,28.9818,-94.9186,4.0,5.8,245.7,6.93,'11111222,11111222,11111222' 
TABS,ioos:station:wmo:42043:1,2019-06-07T09:00:00Z,28.9818,-94.9186,4.0,5.77,262.7,6.85,'11111222,11111222,11111222' 
TABS,ioos:station:wmo:42043:1,2019-06-07T09:30:00Z,28.9818,-94.9186,4.0,5.61,267.6,6.44,'11111222,11111222,11111222' 
TABS,ioos:station:wmo:42043:1,2019-06-07T11:00:00Z,28.9818,-94.9186,4.0,7.13,234.9,8.58,'11111222,11111222,11111222' 
TABS,ioos:station:wmo:42043:1,2019-06-07T12:00:00Z,28.9818,-94.9186,4.0,7.14,231.5,8.1,'11111222,11111222,11111222' 
TABS,ioos:station:wmo:42043:1,2019-06-07T13:00:00Z,28.9818,-94.9186,4.0,6.48,239.4,7.69,'11111222,11111222,11111222' 
TABS,ioos:station:wmo:42043:1,2019-06-07T13:30:00Z,28.9818,-94.9186,4.0,6.61,236.2,7.77,'11111222,11111222,11111222' 
TABS,ioos:station:wmo:42043:1,2019-06-07T14:30:00Z,28.9818,-94.9186,4.0,6.72,251.3,7.72,'11111222,11111222,11111222' 
TABS,ioos:station:wmo:42043:1,2019-06-07T15:30:00Z,28.9818,-94.9186,4.0,6.24,254.6,7.16,'11111222,11111222,11111222' 
TABS,ioos:station:wmo:42043:1,2019-06-07T16:30:00Z,28.9818,-94.9186,4.0,5.62,245.8,6.38,'11111222,11111222,11111222' 
TABS,ioos:station:wmo:42043:1,2019-06-07T18:00:00Z,28.9818,-94.9186,4.0,5.01,245.8,5.65,'11111222,11111222,11111222' 
TABS,ioos:station:wmo:42043:1,2019-06-07T19:00:00Z,28.9818,-94.9186,4.0,5.24,234.9,5.98,'11111222,11111222,11111222' 
TABS,ioos:station:wmo:42043:1,2019-06-07T20:00:00Z,28.9818,-94.9186,4.0,5.65,227.7,6.44,'11111222,11111222,11111222' 
TABS,ioos:station:wmo:42043:1,2019-06-07T21:00:00Z,28.9818,-94.9186,4.0,5.45,231.0,6.3,'11111222,11111222,11111222' 
TABS,ioos:station:wmo:42043:1,2019-06-07T22:00:00Z,28.9818,-94.9186,4.0,5.33,224.6,6.37,'11111222,11111222,11111222' 
TABS,ioos:station:wmo:42043:1,2019-06-07T23:00:00Z,28.9818,-94.9186,4.0,5.14,221.0,5.94,'11111222,11111222,11111222' 
TABS,ioos:station:wmo:42043:1,2019-06-07T23:30:00Z,28.9818,-94.9186,4.0,5.62,219.2,6.2,'11111222,11111222,11111222' 
TABS,ioos:station:wmo:42043:1,2019-06-08T04:00:00Z,28.9818,-94.9186,4.0,5.29,249.6,6.03,'11111222,11111222,11111222' 
TABS,ioos:station:wmo:42043:1,2019-06-08T05:00:00Z,28.9818,-94.9186,4.0,4.58,15.2,5.9,'11111222,11111222,11111222' 
TABS,ioos:station:wmo:42043:1,2019-06-08T06:00:00Z,28.9818,-94.9186,4.0,3.32,353.2,4.0,'11111222,11111222,11111222' 
TABS,ioos:station:wmo:42043:1,2019-06-08T07:00:00Z,28.9818,-94.9186,4.0,4.24,32.4,5.23,'11111222,11111222,11111222' 
TABS,ioos:station:wmo:42043:1,2019-06-08T08:00:00Z,28.9818,-94.9186,4.0,3.68,32.7,4.83,'11111222,11111222,11111222' 
TABS,ioos:station:wmo:42043:1,2019-06-08T09:00:00Z,28.9818,-94.9186,4.0,3.54,29.7,4.95,'11111222,11111222,11111222' 
TABS,ioos:station:wmo:42043:1,2019-06-08T10:00:00Z,28.9818,-94.9186,4.0,2.11,343.6,2.65,'11111222,11111222,11111222' 
TABS,ioos:station:wmo:42043:1,2019-06-08T11:00:00Z,28.9818,-94.9186,4.0,2.13,331.7,2.78,'11111222,11111222,11111222' 
TABS,ioos:station:wmo:42043:1,2019-06-08T11:30:00Z,28.9818,-94.9186,4.0,2.68,328.3,3.41,'11111222,11111222,11111222' 
TABS,ioos:station:wmo:42043:1,2019-06-08T13:00:00Z,28.9818,-94.9186,4.0,3.77,326.7,4.69,'11111222,11111222,11111222' 
TABS,ioos:station:wmo:42043:1,2019-06-08T14:00:00Z,28.9818,-94.9186,4.0,2.71,320.8,3.46,'11111222,11111222,11111222' 
TABS,ioos:station:wmo:42043:1,2019-06-08T15:00:00Z,28.9818,-94.9186,4.0,2.77,313.3,3.57,'11111222,11111222,11111222' 
TABS,ioos:station:wmo:42043:1,2019-06-08T16:00:00Z,28.9818,-94.9186,4.0,2.26,276.9,3.1,'11111222,11111222,11111222' 
TABS,ioos:station:wmo:42043:1,2019-06-08T17:00:00Z,28.9818,-94.9186,4.0,2.41,258.4,3.41,'11111222,11111222,11111222' 
TABS,ioos:station:wmo:42043:1,2019-06-08T18:00:00Z,28.9818,-94.9186,4.0,3.13,249.5,4.18,'11111222,11111222,11111222' 
TABS,ioos:station:wmo:42043:1,2019-06-08T23:00:00Z,28.9818,-94.9186,4.0,4.17,215.7,5.28,'11111222,11111222,11111222' 
TABS,ioos:station:wmo:42043:1,2019-06-08T23:30:00Z,28.9818,-94.9186,4.0,4.36,212.6,5.55,'11111222,11111222,11111222' 
TABS,ioos:station:wmo:42043:1,2019-06-09T04:00:00Z,28.9818,-94.9186,4.0,4.58,211.6,5.45,'11111222,11111222,11111222' 
TABS,ioos:station:wmo:42043:1,2019-06-09T05:00:00Z,28.9818,-94.9186,4.0,3.98,201.0,5.01,'11111222,11111222,11111222' 
TABS,ioos:station:wmo:42043:1,2019-06-09T06:00:00Z,28.9818,-94.9186,4.0,4.62,208.3,5.33,'11111222,11111222,11111222' 
TABS,ioos:station:wmo:42043:1,2019-06-09T07:00:00Z,28.9818,-94.9186,4.0,5.24,215.4,6.36,'11111222,11111222,11111222' 
TABS,ioos:station:wmo:42043:1,2019-06-09T08:00:00Z,28.9818,-94.9186,4.0,5.25,219.7,6.16,'11111222,11111222,11111222' 
TABS,ioos:station:wmo:42043:1,2019-06-09T09:00:00Z,28.9818,-94.9186,4.0,4.42,234.6,5.21,'11111222,11111222,11111222' 
TABS,ioos:station:wmo:42043:1,2019-06-09T10:00:00Z,28.9818,-94.9186,4.0,3.58,249.6,4.47,'11111222,11111222,11111222' 
TABS,ioos:station:wmo:42043:1,2019-06-09T11:00:00Z,28.9818,-94.9186,4.0,3.17,259.4,3.8,'11111222,11111222,11111222' 
TABS,ioos:station:wmo:42043:1,2019-06-09T12:00:00Z,28.9818,-94.9186,4.0,3.15,280.6,3.81,'11111222,11111222,11111222' 
TABS,ioos:station:wmo:42043:1,2019-06-09T13:00:00Z,28.9818,-94.9186,4.0,2.67,317.1,3.34,'11111222,11111222,11111222' 
TABS,ioos:station:wmo:42043:1,2019-06-09T14:00:00Z,28.9818,-94.9186,4.0,3.12,310.0,4.1,'11111222,11111222,11111222' 
TABS,ioos:station:wmo:42043:1,2019-06-09T15:00:00Z,28.9818,-94.9186,4.0,2.91,305.3,3.7,'11111222,11111222,11111222' 
TABS,ioos:station:wmo:42043:1,2019-06-09T16:00:00Z,28.9818,-94.9186,4.0,0.94,339.1,1.62,'11111222,11111222,11111222' 
TABS,ioos:station:wmo:42043:1,2019-06-09T17:00:00Z,28.9818,-94.9186,4.0,0.43,245.4,1.02,'11111222,11111222,11111222' 
TABS,ioos:station:wmo:42043:1,2019-06-09T18:00:00Z,28.9818,-94.9186,4.0,0.7,186.4,1.38,'11111222,11111222,11111222' 
TABS,ioos:station:wmo:42043:1,2019-06-09T19:00:00Z,28.9818,-94.9186,4.0,1.28,144.5,2.06,'11111222,11111222,11111222' 
TABS,ioos:station:wmo:42043:1,2019-06-09T20:00:00Z,28.9818,-94.9186,4.0,1.93,154.9,2.94,'11111222,11111222,11111222' 
TABS,ioos:station:wmo:42043:1,2019-06-09T21:00:00Z,28.9818,-94.9186,4.0,2.07,153.6,3.41,'11111222,11111222,11111222' 
TABS,ioos:station:wmo:42043:1,2019-06-09T22:00:00Z,28.9818,-94.9186,4.0,2.05,116.7,3.65,'11111222,11111222,11111222' 
TABS,ioos:station:wmo:42043:1,2019-06-09T23:00:00Z,28.9818,-94.9186,4.0,1.7,98.1,2.7,'11111222,11111222,11111222' 
TABS,ioos:station:wmo:42043:1,2019-06-09T23:30:00Z,28.9818,-94.9186,4.0,2.05,105.6,3.71,'11111222,11111222,11111222' 
TABS,ioos:station:wmo:42043:1,2019-06-10T04:00:00Z,28.9818,-94.9186,4.0,4.04,166.2,5.12,'11111222,11111222,11111222' 
TABS,ioos:station:wmo:42043:1,2019-06-10T05:00:00Z,28.9818,-94.9186,4.0,1.41,165.4,2.06,'11111222,11111222,11111222' 
TABS,ioos:station:wmo:42043:1,2019-06-10T06:00:00Z,28.9818,-94.9186,4.0,0.39,84.9,0.98,'11111222,11111222,11111222' 
TABS,ioos:station:wmo:42043:1,2019-06-10T07:00:00Z,28.9818,-94.9186,4.0,1.77,8.2,2.52,'11111222,11111222,11111222' 
TABS,ioos:station:wmo:42043:1,2019-06-10T08:00:00Z,28.9818,-94.9186,4.0,2.66,351.2,3.18,'11111222,11111222,11111222' 
TABS,ioos:station:wmo:42043:1,2019-06-10T09:00:00Z,28.9818,-94.9186,4.0,6.0,326.6,7.15,'11111222,11111222,11111222' 
TABS,ioos:station:wmo:42043:1,2019-06-10T10:00:00Z,28.9818,-94.9186,4.0,7.06,29.6,8.17,'11111222,11111222,11111222' 
TABS,ioos:station:wmo:42043:1,2019-06-10T11:00:00Z,28.9818,-94.9186,4.0,7.0,28.2,8.66,'11111222,11111222,11111222' 
TABS,ioos:station:wmo:42043:1,2019-06-10T12:00:00Z,28.9818,-94.9186,4.0,7.62,23.9,9.1,'11111222,11111222,11111222' 
TABS,ioos:station:wmo:42043:1,2019-06-10T13:00:00Z,28.9818,-94.9186,4.0,7.86,29.7,9.59,'11111222,11111222,11111222' 
TABS,ioos:station:wmo:42043:1,2019-06-10T14:00:00Z,28.9818,-94.9186,4.0,7.19,23.5,8.52,'11111222,11111222,11111222' 
TABS,ioos:station:wmo:42043:1,2019-06-10T15:00:00Z,28.9818,-94.9186,4.0,6.2,21.3,7.56,'11111222,11111222,11111222' 
TABS,ioos:station:wmo:42043:1,2019-06-10T16:00:00Z,28.9818,-94.9186,4.0,6.14,23.9,7.74,'11111222,11111222,11111222' 
TABS,ioos:station:wmo:42043:1,2019-06-10T17:00:00Z,28.9818,-94.9186,4.0,6.29,27.6,7.85,'11111222,11111222,11111222' 
TABS,ioos:station:wmo:42043:1,2019-06-10T18:00:00Z,28.9818,-94.9186,4.0,5.45,27.7,6.76,'11111222,11111222,11111222' 
TABS,ioos:station:wmo:42043:1,2019-06-10T19:00:00Z,28.9818,-94.9186,4.0,4.2,11.3,5.14,'11111222,11111222,11111222' 
TABS,ioos:station:wmo:42043:1,2019-06-10T20:00:00Z,28.9818,-94.9186,4.0,3.78,5.6,5.12,'11111222,11111222,11111222' 
TABS,ioos:station:wmo:42043:1,2019-06-10T21:00:00Z,28.9818,-94.9186,4.0,3.45,2.5,4.55,'11111222,11111222,11111222' 